Temp_Advection
nan nan nan nan nan nan nan nan nan nan nan nan nan nan nan nan nan nan nan nan nan nan nan nan nan nan nan nan nan nan nan nan nan nan nan nan nan nan nan nan nan nan nan nan nan
nan -0 -0 -0 -0 -0 -0 -0 -0 -0 -0 -0 -0 -0 0 0 -0 0 0 -0 0 0 0 0 -0 -0 -0 -0 -0 -0 -1 -1 -0 -0 -0 -0 0 -0 0 0 0 -0 0 1 nan
nan -0 -0 -0 -0 -0 -0 -0 -0 -0 -0 -0 -0 -0 -0 0 0 0 0 0 0 0 0 0 -0 -0 -0 -0 -0 -0 -1 -1 -0 0 -0 -1 -0 -0 0 -0 -1 0 1 0 nan
nan -0 -0 -0 -0 -0 -0 -0 -0 -0 -0 -0 -0 0 0 -0 0 0 -0 0 0 0 0 -0 -0 -0 -0 -0 0 -0 -0 0 -0 1 0 -1 -1 -0 -0 -0 -0 -0 1 0 nan
nan -0 -0 -0 -0 -0 -0 -0 -0 -0 -0 -0 -0 0 0 -0 0 0 0 0 0 0 -0 -0 -0 -0 -1 -0 0 0 -0 -0 0 1 0 -0 -1 -1 -0 -0 -0 0 0 0 nan
nan -0 -0 -0 -0 -0 -0 -0 -0 -0 -0 -0 -0 0 0 0 0 0 0 0 0 -0 -0 -0 -0 -0 -0 -0 -0 -0 0 0 0 -0 -0 -1 -1 -0 -1 -0 0 0 0 0 nan
nan -0 -0 -0 -0 -0 -0 0 -0 -0 -0 -0 -0 -0 -0 -0 -0 -0 0 -0 0 -0 -0 0 0 -0 -0 -0 0 0 -0 -1 -0 -0 0 0 -0 -1 -1 -0 0 0 0 0 nan
nan -0 -0 -0 -0 -0 -0 -0 -0 -0 -0 -0 -0 -0 -0 -0 -0 -0 -0 -0 -0 0 0 0 -0 -0 -1 -0 -0 -0 -0 -1 -0 0 0 0 -3 -1 0 0 0 0 0 0 nan
nan -0 -0 -0 -0 -0 -0 -0 -0 -0 -0 -0 -0 0 0 -0 -0 0 -0 0 0 0 -0 -0 -0 -1 -0 -0 -1 -0 -0 -1 -0 0 0 0 -1 -1 -0 -0 -0 -0 0 0 nan
nan -0 -0 -0 -0 -0 -0 -0 -0 -0 -1 -0 -0 -0 -0 -0 0 -0 -0 -0 -0 -0 0 -0 -0 -0 -0 -0 -0 -1 -1 -0 -0 0 1 1 -1 -1 -0 -0 -0 -0 0 0 nan
nan -0 -0 -0 -0 -0 -1 -1 -0 -0 -0 -0 -0 -0 -0 -0 0 0 0 -0 -0 -0 -0 -0 -0 -1 -1 -0 0 1 0 -1 -1 -0 1 0 -0 -1 -0 -0 -0 -0 -0 1 nan
nan -0 -0 -0 -0 -0 -0 -1 -0 -0 -0 -0 0 -0 -0 -0 -0 -0 -0 -0 -0 -1 0 1 -1 -1 -0 0 -0 -0 -0 -1 -1 -0 0 0 -0 -1 -0 0 1 -0 -0 -0 nan
nan -0 -0 -0 -0 -0 -1 -1 -0 -0 -0 -0 0 -0 -0 -0 -0 -0 -0 -0 -0 -0 -0 -0 -1 -0 0 0 -0 -0 -0 -0 -1 -1 -0 1 -0 -1 -1 1 -0 -0 -0 -0 nan
nan -0 -0 -0 -0 -1 -0 -0 -0 -0 -0 -0 -0 -0 0 -0 0 -0 -0 -0 -0 -0 -0 -0 -0 0 -0 -1 -0 -1 -1 0 -0 0 -1 -0 -0 -2 1 0 0 -0 -0 -0 nan
nan -0 -0 -0 0 -0 0 -0 -0 0 -0 -0 -0 -0 0 -0 -0 -0 0 -0 -1 -1 -0 -0 -1 0 -0 -1 -1 -1 -2 -0 -0 -0 -1 -0 -0 -1 -0 1 0 -0 -1 -1 nan
nan -0 -0 -0 -0 0 0 -0 0 -0 0 -0 -0 0 -0 -0 -0 -0 0 -0 -1 -1 -1 -0 -0 1 -1 -1 -1 -0 -1 -2 -1 1 -0 -1 -0 -0 -0 -0 -0 -0 -1 -1 nan
nan -0 0 -0 0 0 0 0 -0 -0 -0 -0 -0 -0 -0 -1 -0 -0 -0 -0 -1 -1 -2 -2 -1 -0 -1 -1 -1 -1 0 -0 -1 -1 -1 -0 -0 -2 -1 -1 -0 -1 -1 -1 nan
nan -0 -0 -0 0 0 -0 -0 -0 -0 -1 -1 -0 0 -0 0 -0 -1 -0 -0 -1 -0 -1 -1 -1 -1 -1 -0 -0 -1 -0 1 -0 -0 -1 -0 0 -1 -1 -1 -1 -1 -1 -1 nan
nan -0 -0 -0 0 0 0 -0 -0 -1 -0 -1 -1 -0 -0 -0 -0 -0 -1 -1 -0 -1 -0 -1 -1 -2 -1 -0 0 0 -1 -0 0 -1 -1 1 -1 -0 -0 -0 -1 -1 -1 -1 nan
nan -0 -0 0 -0 0 -0 -1 -0 -0 -0 -0 -0 -0 -0 -1 -0 -1 -0 -1 -0 -0 0 0 -1 -2 -1 -1 -0 -0 0 -0 0 0 -2 1 -1 -1 -1 -1 -1 -1 -1 -1 nan
nan 0 -0 -0 -0 -0 -0 -0 -0 -0 -0 -0 -0 -0 -0 -0 -0 -1 -0 -0 -0 -0 -1 0 0 -1 -1 0 -1 -1 -1 -0 -1 0 -0 1 -1 -0 -0 -0 -1 -1 -0 -0 nan
nan -0 -0 -0 -0 -0 -1 -0 -0 -0 -0 -0 -0 -0 -0 -0 -0 -0 -0 -0 -0 -0 -1 -0 0 -0 -2 0 -1 -0 0 -0 -0 -0 -1 0 -0 -0 -0 -1 -1 0 0 0 nan
nan -0 -0 -1 -0 -1 -0 -0 -0 -0 -0 -0 -0 -0 -0 -0 -0 -0 -0 -0 -0 0 0 -0 0 0 -1 -1 -0 -0 -0 -0 -0 -0 -0 -0 -0 -0 -0 -0 0 1 -0 -0 nan
nan -0 -1 -1 -0 -0 -0 -0 -0 -0 -0 -0 -0 -0 -0 -0 0 -0 -0 -0 0 -0 0 -0 -0 0 0 -1 -1 -0 -1 -0 -0 -0 -0 -1 -1 -0 -0 0 0 0 -0 -0 nan
nan -1 -0 -0 -0 -0 -0 -0 -0 -0 -0 -0 0 -0 0 -0 -0 -0 -0 -0 -0 0 0 0 -0 -0 1 -0 -0 -1 -0 -0 -0 -1 -0 -0 -0 0 -0 -0 -0 -1 -1 -0 nan
nan 0 -0 -0 -0 -0 -0 -0 -0 -0 -0 -0 -0 -0 0 0 -0 -0 -0 -0 -0 -0 -0 0 0 -0 -0 -0 -1 -0 -0 -0 -0 -0 -0 -1 -0 0 -0 -0 -1 -1 -0 -1 nan
nan nan nan nan nan nan nan nan nan nan nan nan nan nan nan nan nan nan nan nan nan nan nan nan nan nan nan nan nan nan nan nan nan nan nan nan nan nan nan nan nan nan nan nan nan
Wind_Speed
18 18 18 19 19 19 19 19 19 18 18 18 16 15 16 16 16 16 11 10 7 8 8 6 4 4 4 6 6 3 6 10 13 11 10 1 6 6 5 12 9 10 16 6 4
18 19 20 19 20 20 19 20 20 19 19 17 17 17 15 14 14 13 12 8 6 7 8 7 7 6 6 6 5 8 10 11 8 9 9 11 10 15 11 12 16 18 17 15 9
21 21 21 21 20 20 20 19 19 18 17 17 17 16 15 12 10 1 4 5 5 7 8 7 6 7 11 10 11 8 12 14 12 12 14 17 17 16 17 17 20 17 19 18 19
22 23 23 22 22 21 21 19 19 20 19 17 16 13 10 5 4 3 3 4 3 7 6 5 7 9 8 11 12 12 19 20 21 20 16 17 21 20 21 23 23 23 19 19 19
23 24 24 23 23 23 22 20 20 20 20 18 15 11 5 3 2 6 5 4 4 6 7 8 11 11 12 9 10 17 19 22 20 22 24 25 25 24 25 24 24 25 27 28 28
24 25 25 24 23 23 23 21 21 21 19 15 12 6 2 6 5 5 5 4 4 5 6 8 7 10 15 17 14 13 14 19 21 24 26 25 28 25 25 24 25 26 30 32 31
26 26 25 24 24 23 21 22 23 20 15 11 6 1 1 2 4 4 3 4 5 4 6 8 8 9 5 10 12 14 18 18 21 23 17 20 23 22 30 23 22 25 27 31 28
28 27 26 24 24 23 22 23 22 14 9 8 5 4 2 3 3 4 2 4 4 4 4 5 6 10 14 13 15 17 18 18 7 2 7 7 27 19 20 9 15 18 18 19 20
28 28 26 25 23 21 22 23 17 9 11 6 7 4 3 4 4 6 5 5 4 4 4 4 5 10 10 10 13 15 16 18 16 8 7 13 22 10 9 13 20 21 21 19 16
28 27 26 24 23 18 21 18 12 5 13 5 8 1 6 8 8 5 5 3 4 4 6 6 6 8 10 10 14 14 20 24 24 16 14 19 28 25 28 29 31 30 27 23 18
27 26 25 23 21 17 20 11 8 1 11 4 4 2 4 12 6 5 5 4 5 7 9 7 8 14 17 17 21 23 24 27 26 22 23 24 28 26 24 25 23 24 29 25 14
27 26 23 22 18 17 15 7 5 4 3 6 5 4 6 13 4 6 8 5 5 11 12 10 16 19 14 16 18 20 25 29 28 20 20 24 26 23 22 22 22 13 13 8 3
27 25 21 21 14 18 14 14 8 4 4 2 3 4 6 12 4 9 11 8 11 15 16 18 20 23 20 19 20 22 23 26 28 28 26 24 28 26 26 12 3 2 3 3 2
27 24 21 20 9 16 11 16 8 3 4 3 1 5 11 10 2 11 10 6 6 11 15 12 8 10 16 20 20 28 23 28 28 24 20 22 21 22 18 10 6 7 7 6 8
26 23 19 19 12 10 15 13 7 2 4 5 3 4 13 9 12 9 9 7 12 16 13 17 23 20 19 19 19 26 24 25 26 24 23 25 15 19 19 16 11 8 11 11 13
24 19 17 18 12 15 14 10 3 3 2 2 3 9 13 10 5 14 11 11 19 11 13 19 17 13 11 18 21 17 15 23 22 18 17 23 22 21 12 8 15 12 13 14 15
22 15 18 17 13 15 13 3 3 2 5 7 6 11 14 11 5 14 16 10 10 11 13 19 11 7 21 23 19 21 20 9 12 12 16 10 7 10 17 16 13 12 14 16 17
20 10 17 17 15 15 10 4 2 3 5 8 7 16 6 13 6 16 14 12 14 15 12 11 17 16 26 23 16 22 18 10 11 10 10 13 6 5 14 17 18 15 14 15 17
15 4 18 16 13 12 4 4 5 5 6 11 17 6 1 5 7 10 17 7 6 13 9 13 13 29 27 26 18 17 18 18 13 19 15 13 6 7 12 11 18 19 21 21 23
10 3 20 15 12 9 4 4 3 6 8 7 6 5 10 13 11 15 10 10 10 13 16 16 26 24 22 21 19 19 17 13 10 9 17 16 7 8 15 16 16 16 19 19 23
6 0 19 14 9 8 4 4 3 5 8 6 6 8 7 12 13 13 7 5 13 15 20 21 14 20 16 19 19 16 6 7 11 11 7 11 5 8 14 13 15 18 23 24 24
4 1 18 13 5 5 4 4 2 5 8 2 4 4 8 12 9 6 11 10 18 20 20 14 9 11 21 15 12 11 6 9 6 7 11 9 4 9 11 16 23 22 26 26 24
3 3 10 11 4 5 5 4 5 6 8 5 5 4 7 10 6 9 12 15 19 16 11 10 7 11 15 12 11 15 15 14 10 11 10 6 5 11 17 19 22 24 27 28 25
4 2 8 14 7 4 2 3 2 7 6 6 3 5 8 9 5 7 12 14 13 9 13 15 11 13 12 18 16 10 16 21 3 5 5 9 12 18 19 19 23 25 25 25 24
8 4 4 3 7 7 3 3 4 5 4 8 0 7 8 6 8 8 13 10 8 9 15 8 12 15 16 6 14 17 19 21 18 17 11 11 12 17 19 19 25 25 28 27 22
5 4 5 5 4 4 4 5 5 6 3 3 5 10 8 5 7 13 14 12 6 10 11 11 10 15 13 11 11 14 18 18 17 14 14 15 12 19 26 28 28 29 27 22 25
7 5 3 2 2 4 4 4 4 7 3 2 8 9 7 9 16 17 12 10 9 8 11 9 11 11 8 16 5 4 14 18 17 11 12 12 17 24 22 25 30 32 22 26 32
Wind_Direction
1 357 352 347 342 337 334 329 325 322 318 314 308 304 302 302 302 301 304 260 244 211 211 209 194 199 203 225 227 248 254 261 266 272 277 335 264 235 282 263 240 226 250 313 246
358 353 349 345 341 337 334 329 325 322 318 315 311 306 302 302 304 296 272 251 225 209 197 191 205 206 223 229 223 225 245 269 311 323 289 303 275 287 275 265 250 246 249 254 263
354 351 348 345 341 336 334 330 326 322 318 315 313 309 305 305 320 168 242 213 211 197 198 213 218 217 238 232 222 220 247 273 300 287 287 279 278 273 268 263 266 256 257 254 249
353 350 348 345 341 339 337 333 329 325 322 316 308 303 292 289 318 304 229 223 233 208 206 213 218 223 246 230 238 257 256 260 273 274 271 272 280 273 264 261 267 267 263 263 255
352 350 348 346 343 339 336 334 331 326 321 318 312 304 277 247 252 265 261 273 256 223 219 229 242 248 257 266 278 250 265 274 271 267 268 277 267 266 263 265 264 262 263 263 257
351 349 348 346 343 341 339 336 333 329 326 323 316 306 201 238 266 270 257 270 245 239 242 232 247 261 279 271 257 285 290 275 270 269 271 273 270 266 256 259 256 258 261 264 262
350 349 347 345 344 343 340 338 334 333 335 347 5 26 75 305 316 290 276 267 251 250 254 252 258 249 312 269 276 276 278 274 266 258 244 284 272 246 259 259 261 264 265 265 261
347 346 346 345 345 343 341 339 335 345 359 1 16 87 57 22 39 25 332 311 289 277 258 254 264 264 259 272 280 259 266 272 241 236 221 212 270 298 292 256 259 269 268 270 262
346 344 343 343 345 344 343 340 339 359 359 21 43 83 69 41 2 324 304 289 285 288 276 260 258 256 247 257 276 237 262 268 266 220 260 213 276 298 311 285 274 272 267 272 261
346 344 342 343 345 347 348 343 345 13 11 53 40 92 46 339 324 336 329 292 279 273 276 247 252 248 235 248 261 277 279 282 280 271 250 246 265 278 281 279 272 270 266 266 263
346 346 344 343 344 349 358 4 351 8 29 39 358 49 12 352 14 356 333 299 267 251 259 213 261 253 271 282 278 279 280 278 279 282 277 273 274 277 279 274 272 268 265 267 274
346 347 346 344 344 352 0 40 18 313 320 30 53 32 4 353 309 18 359 304 275 275 295 262 257 271 298 295 281 277 275 278 280 281 278 278 273 276 276 280 282 304 293 298 263
345 347 349 347 343 350 360 8 359 354 264 71 48 19 2 346 0 353 352 318 281 287 284 278 283 301 297 286 277 270 268 277 283 297 286 278 274 274 264 271 133 106 98 70 61
344 344 350 352 352 344 346 347 353 13 234 59 44 12 348 332 139 12 354 315 281 295 309 283 297 293 286 280 286 283 292 292 291 290 282 283 282 280 275 169 174 139 99 85 69
344 344 349 355 343 347 333 337 347 57 304 39 32 357 355 31 327 35 10 350 303 312 300 277 301 309 304 312 324 296 300 290 287 277 275 270 271 264 259 228 160 117 99 82 65
346 344 352 356 347 342 337 337 1 244 262 35 9 357 354 2 21 342 359 16 291 294 272 281 324 294 12 334 306 336 335 306 279 262 261 265 260 262 275 308 125 103 91 80 67
346 348 359 356 345 340 337 359 279 333 7 359 344 339 324 348 342 357 351 13 32 332 336 317 305 87 19 342 333 340 323 301 293 283 277 344 333 33 53 71 82 71 73 73 65
346 0 1 356 347 343 347 250 342 20 10 354 332 322 35 9 344 355 337 331 34 357 324 332 307 19 348 341 321 313 302 301 302 307 320 314 315 63 63 58 65 62 55 61 61
344 19 8 356 357 354 312 37 11 10 345 330 311 304 79 29 342 349 338 26 36 23 2 312 298 329 319 316 306 310 288 309 286 270 267 267 102 102 82 74 52 44 39 29 30
345 353 359 0 5 25 28 82 55 22 337 326 328 16 327 350 348 340 326 65 6 5 341 315 306 310 308 306 284 295 315 303 286 263 258 247 81 33 34 43 33 31 22 26 30
352 353 359 359 23 42 59 64 72 21 3 336 329 305 334 344 337 327 315 44 11 340 334 317 304 314 317 333 349 320 5 335 301 275 286 277 71 24 39 38 39 23 15 14 16
13 295 6 10 43 43 49 23 17 3 4 359 339 357 336 333 325 321 342 343 350 336 324 325 307 304 315 310 81 36 1 349 337 348 304 291 78 55 40 31 24 16 14 12 11
16 354 13 39 35 62 109 98 53 16 27 14 14 22 352 328 322 355 340 344 343 338 342 333 328 324 335 343 342 336 350 321 283 280 280 317 91 30 30 24 12 3 359 358 358
6 333 21 47 46 22 39 64 58 38 46 5 2 339 339 331 321 303 333 348 356 354 335 327 316 343 332 324 328 349 28 28 357 332 347 38 35 14 10 3 355 351 350 347 345
27 45 6 9 42 55 40 22 16 12 28 14 181 356 339 320 330 343 339 340 5 351 337 333 316 335 316 58 54 51 41 27 32 15 20 2 54 14 354 347 344 343 339 340 344
35 342 42 49 4 352 3 33 16 4 319 14 332 336 325 312 335 316 327 331 346 339 346 338 328 324 320 100 87 55 27 29 13 14 359 350 2 353 343 340 341 339 336 340 341
48 46 10 16 14 317 24 9 20 341 118 352 321 316 328 346 314 303 293 296 296 327 335 335 335 333 331 332 175 35 16 12 356 19 1 6 345 342 342 341 338 330 342 342 334
Height
1531 1528 1525 1522 1519 1516 1513 1509 1507 1504 1502 1500 1497 1495 1494 1493 1492 1490 1490 1489 1488 1488 1490 1491 1492 1493 1494 1495 1495 1495 1489 1476 1467 1465 1463 1466 1468 1466 1469 1467 1466 1468 1469 1469 1468
1531 1528 1525 1522 1518 1515 1512 1508 1505 1502 1499 1497 1495 1493 1491 1489 1488 1487 1486 1486 1486 1487 1488 1490 1492 1493 1493 1493 1493 1491 1482 1470 1465 1466 1467 1466 1469 1468 1467 1466 1466 1466 1467 1468 1469
1530 1527 1524 1520 1517 1513 1510 1506 1502 1500 1497 1495 1492 1491 1490 1489 1488 1487 1485 1485 1485 1486 1488 1490 1491 1493 1490 1489 1488 1482 1477 1470 1470 1471 1471 1468 1467 1467 1465 1463 1462 1461 1463 1464 1465
1530 1526 1522 1519 1515 1511 1507 1504 1500 1497 1494 1492 1489 1488 1487 1489 1489 1485 1485 1484 1485 1486 1487 1489 1490 1490 1487 1483 1482 1481 1475 1473 1470 1470 1470 1466 1465 1462 1461 1459 1461 1460 1460 1461 1461
1529 1525 1521 1517 1513 1509 1505 1502 1498 1494 1491 1489 1487 1486 1486 1488 1489 1485 1485 1485 1485 1485 1487 1488 1488 1487 1483 1478 1479 1476 1473 1471 1469 1468 1466 1465 1461 1460 1456 1456 1456 1455 1455 1455 1454
1529 1524 1519 1515 1511 1507 1503 1499 1495 1492 1489 1486 1485 1484 1486 1488 1485 1484 1484 1485 1486 1486 1487 1487 1486 1484 1481 1479 1477 1470 1470 1466 1465 1463 1461 1457 1451 1455 1447 1447 1447 1448 1447 1447 1447
1528 1523 1518 1514 1509 1505 1501 1497 1492 1489 1486 1484 1483 1484 1486 1488 1485 1485 1485 1485 1485 1486 1487 1486 1486 1486 1480 1475 1473 1473 1469 1462 1458 1454 1453 1454 1441 1440 1437 1438 1439 1440 1440 1439 1440
1526 1521 1517 1512 1508 1503 1499 1495 1490 1488 1486 1484 1483 1483 1487 1486 1486 1486 1486 1487 1485 1485 1484 1484 1485 1483 1480 1475 1471 1468 1463 1456 1441 1445 1447 1455 1421 1432 1432 1432 1434 1435 1435 1435 1435
1525 1520 1515 1510 1506 1502 1497 1493 1489 1487 1486 1484 1485 1484 1488 1487 1488 1486 1486 1486 1486 1485 1484 1483 1483 1481 1477 1475 1465 1454 1449 1443 1437 1440 1445 1447 1427 1432 1432 1434 1430 1430 1430 1430 1430
1524 1519 1514 1509 1505 1501 1497 1492 1488 1487 1486 1485 1486 1489 1490 1490 1487 1485 1485 1485 1485 1485 1484 1483 1481 1475 1469 1466 1459 1450 1439 1432 1431 1433 1434 1438 1426 1428 1432 1430 1425 1424 1423 1424 1425
1522 1518 1512 1508 1504 1500 1496 1491 1493 1492 1489 1491 1492 1490 1491 1489 1486 1487 1485 1486 1485 1484 1479 1477 1477 1466 1457 1451 1445 1444 1443 1438 1430 1432 1433 1429 1423 1422 1424 1423 1420 1417 1418 1418 1421
1521 1516 1511 1507 1503 1500 1497 1496 1497 1498 1494 1493 1492 1491 1490 1489 1488 1487 1487 1487 1484 1479 1474 1476 1469 1460 1457 1458 1455 1449 1444 1433 1425 1427 1429 1422 1415 1414 1414 1415 1413 1417 1418 1421 1424
1519 1515 1510 1506 1502 1500 1498 1497 1495 1495 1495 1494 1493 1493 1493 1492 1489 1489 1489 1486 1482 1477 1472 1468 1460 1459 1457 1453 1452 1442 1440 1429 1425 1420 1419 1419 1411 1410 1404 1403 1416 1420 1424 1427 1428
1519 1514 1510 1506 1505 1501 1498 1496 1494 1494 1487 1494 1493 1495 1495 1492 1492 1491 1489 1490 1482 1476 1473 1467 1462 1462 1458 1452 1448 1437 1438 1430 1425 1424 1417 1418 1402 1403 1398 1407 1416 1421 1424 1430 1431
1517 1513 1509 1505 1505 1503 1501 1496 1495 1496 1488 1497 1497 1497 1497 1497 1498 1491 1491 1487 1483 1481 1483 1467 1462 1461 1463 1458 1456 1445 1443 1437 1430 1422 1417 1411 1406 1394 1390 1391 1411 1421 1427 1432 1433
1516 1512 1509 1507 1504 1502 1498 1496 1496 1492 1488 1499 1499 1499 1499 1497 1497 1496 1493 1492 1487 1482 1474 1467 1467 1468 1471 1469 1462 1451 1448 1440 1427 1416 1415 1402 1398 1387 1388 1388 1409 1424 1430 1434 1436
1515 1512 1509 1507 1505 1501 1497 1497 1492 1486 1494 1502 1504 1502 1501 1502 1498 1499 1494 1491 1499 1493 1478 1479 1466 1469 1476 1470 1462 1457 1455 1448 1435 1418 1403 1405 1406 1425 1421 1420 1427 1434 1437 1439 1440
1514 1512 1511 1507 1504 1500 1497 1495 1495 1503 1507 1511 1506 1503 1503 1508 1500 1501 1495 1496 1502 1507 1497 1481 1475 1475 1482 1481 1475 1469 1457 1448 1446 1427 1426 1405 1410 1436 1439 1440 1440 1445 1447 1446 1443
1514 1512 1510 1507 1504 1500 1500 1501 1513 1520 1526 1521 1508 1501 1493 1501 1513 1505 1501 1505 1512 1514 1517 1503 1485 1487 1487 1483 1479 1470 1464 1449 1452 1439 1429 1409 1434 1444 1445 1446 1449 1451 1452 1451 1446
1515 1513 1511 1508 1504 1502 1502 1516 1522 1530 1530 1524 1514 1510 1510 1512 1516 1512 1503 1513 1517 1519 1518 1509 1497 1493 1481 1477 1470 1464 1460 1458 1442 1443 1424 1399 1436 1453 1453 1456 1458 1457 1456 1454 1452
1515 1514 1513 1509 1506 1506 1511 1524 1529 1532 1531 1529 1525 1521 1519 1520 1522 1518 1512 1514 1518 1518 1517 1510 1501 1491 1482 1477 1474 1465 1468 1464 1448 1441 1439 1412 1461 1469 1465 1467 1466 1467 1464 1460 1456
1517 1515 1515 1510 1512 1515 1522 1528 1533 1532 1532 1531 1529 1528 1528 1527 1523 1519 1519 1519 1522 1521 1515 1508 1504 1498 1486 1476 1483 1483 1483 1476 1474 1463 1452 1431 1472 1475 1474 1473 1473 1472 1469 1465 1461
1522 1521 1518 1513 1514 1518 1530 1533 1535 1533 1533 1531 1530 1532 1533 1531 1530 1524 1524 1523 1522 1520 1518 1515 1503 1499 1486 1478 1477 1478 1476 1476 1471 1464 1454 1450 1471 1484 1482 1481 1479 1476 1472 1468 1464
1525 1521 1524 1523 1529 1527 1527 1532 1533 1538 1537 1535 1534 1534 1534 1531 1530 1527 1524 1523 1522 1521 1520 1515 1506 1502 1506 1496 1492 1486 1487 1479 1472 1471 1459 1476 1484 1482 1483 1483 1481 1478 1476 1472 1467
1530 1535 1534 1529 1531 1532 1531 1535 1535 1537 1539 1539 1534 1535 1535 1532 1528 1526 1525 1523 1520 1521 1518 1515 1511 1502 1496 1500 1496 1497 1498 1489 1486 1489 1484 1485 1488 1491 1490 1487 1485 1483 1478 1473 1469
1537 1539 1542 1543 1545 1542 1541 1540 1540 1541 1542 1538 1539 1537 1535 1532 1532 1530 1528 1524 1523 1521 1517 1513 1509 1500 1493 1495 1498 1503 1501 1498 1496 1496 1493 1487 1489 1495 1493 1489 1485 1482 1478 1473 1470
1539 1540 1540 1545 1544 1541 1546 1547 1546 1545 1544 1544 1543 1538 1533 1534 1533 1531 1529 1527 1526 1525 1521 1514 1510 1502 1495 1485 1492 1499 1510 1506 1502 1498 1502 1500 1502 1495 1491 1490 1486 1478 1474 1473 1469